Location: ?ejkovice
(49.0137°N, 14.3821°E)
Time: 16:58:58
(UTC+00:00)

SAR-Lupe-4 - Pass Details

Date: 23 May 2024
Orbit: 476 x 482 km, 98.1° (Epoch: 02 April)

Event Time Altitude Azimuth Distance (km) Brightness Sun altitude
Rises 02:09:05 0° 11° (NNE) 2,554 8.3 -8.6°
Reaches altitude 10° 02:11:10 10° 9° (N) 1,669 7.2 -8.3°
Maximum altitude 02:14:44 68° 286° (WNW) 523 3.6 -7.9°
Drops below altitude 10° 02:18:15 10° 204° (SSW) 1,654 5.7 -7.5°
Enters shadow 02:18:38 - 203° (SSW) 1,815 5.9 -7.4°
